#timestamp,LO_Frequency,Hit,StdDev 
1630083615.3,286047000.6,N
1630083635.2,286046997.0,N
1630083655.0,286046999.5,N
1630083655.9,286046999.5,N
1630083675.8,286046999.2,N
1630083695.6,286046998.5,N
1630083715.4,286047000.8,N
1630083735.3,286046999.9,N
1630083755.1,286047000.3,N
1630083775.8,286047000.5,N
1630083795.7,286046999.1,N
1630083815.5,286046999.4,N
1630083835.4,286047001.2,N
1630083855.2,286047000.2,N
1630083875.0,286047002.4,N
1630083875.9,286047002.4,N
1630083895.8,286047000.5,N
1630083915.6,286047000.2,N
1630083935.4,286047001.7,N
1630083955.3,286047003.6,N
1630083975.1,286047003.6,N
1630083995.9,286047003.6,N
1630084015.7,286047003.1,N
1630084035.5,286047001.8,N
1630084055.4,286047004.2,N
1630084075.2,286047001.7,N
1630084095.1,286047002.1,N
1630084096.0,286047002.1,N
1630084115.8,286047000.9,N
1630084135.6,286046999.6,N
1630084155.5,286046998.7,N
1630084175.3,286047000.2,N
1630084195.2,286046999.8,N
1630084215.9,286047002.4,N
1630084235.7,286047001.0,N
1630084255.6,286047000.9,N
1630084275.4,286046999.8,N
1630084295.3,286047001.3,N
1630084315.1,286047004.3,N
1630084316.0,286047004.3,N
1630084335.8,286047004.4,N
1630084355.7,286047003.9,N
1630084375.5,286047004.4,N
1630084395.3,286047003.6,N
1630084415.2,286047003.7,N
1630084435.0,286047004.1,N
1630084435.9,286047004.1,N
1630084455.8,286047001.6,N
1630084475.6,286047004.2,N
1630084495.5,286047003.6,N
1630084515.3,286047002.2,N
1630084535.1,286047001.9,N
1630084555.9,286047001.5,N
1630084575.7,286047003.8,N
1630084595.5,286047003.6,N
1630084615.4,286047004.1,N
1630084635.2,286047002.9,N
1630084655.0,286047003.7,N
1630084656.0,286047003.7,N
1630084675.8,286047003.6,N
1630084695.6,286047003.3,N
1630084715.5,286047003.4,N
1630084735.3,286047005.6,Y
1630084755.1,286047002.5,P
1630084775.9,286047002.5,P
1630084795.7,286047002.4,P
1630084815.6,286046999.8,N
1630084835.4,286047000.6,N
1630084855.2,286047000.1,N
1630084875.1,286047000.2,N
1630084876.0,286047000.2,N
1630084895.8,286047002.1,N
1630084915.6,286047002.4,N
1630084935.5,286047002.1,N
1630084955.3,286047002.2,N
1630084975.2,286047001.4,N
1630084995.9,286047004.4,Y
1630085015.7,286046999.9,P
1630085035.6,286047000.9,N
1630085055.4,286047000.9,N
1630085075.3,286047001.1,N
1630085095.1,286046999.3,N
1630085115.8,286046999.0,N
1630085135.7,286047001.1,N
1630085155.5,286046998.3,N
1630085175.3,286046998.1,N
1630085195.2,286047000.4,N
1630085215.0,286047000.8,N
1630085215.9,286047000.8,N
1630085235.8,286047000.7,N
1630085255.6,286047000.4,N
1630085275.4,286046998.2,N
1630085295.3,286046999.4,N
1630085315.1,286046999.2,N
1630085335.9,286046996.5,Y
1630085355.7,286046996.9,P
1630085375.5,286046999.2,N
1630085395.4,286046999.6,N
1630085415.2,286046998.8,N
1630085435.0,286046998.9,N
1630085435.9,286046998.9,N
1630085455.8,286046998.2,N
1630085475.6,286046998.3,N
1630085495.5,286046998.5,N
1630085515.3,286046998.3,N
1630085535.1,286047000.8,N
1630085555.9,286047001.1,N
1630085575.7,286046998.3,N
1630085595.6,286046998.3,N
1630085615.4,286046998.7,N
1630085635.2,286046998.5,N
1630085655.1,286046998.1,N
1630085656.0,286046998.1,N
1630085675.8,286046999.9,N
1630085695.7,286047000.2,N
1630085715.5,286047000.2,N
1630085735.3,286047000.2,N
1630085755.2,286046999.7,N
1630085775.0,286047000.1,N
1630085775.9,286047000.1,N
1630085795.8,286046999.8,N
1630085815.6,286046999.8,N
1630085835.4,286047002.8,N
1630085855.3,286047002.6,N
1630085875.1,286047002.6,N
1630085895.8,286046999.7,N
1630085915.7,286046999.9,N
1630085935.5,286047000.4,N
1630085955.4,286047000.9,N
1630085975.2,286047000.1,N
1630085995.0,286047000.0,N
1630085995.9,286047000.0,N
1630086015.8,286047000.0,N
1630086035.6,286047000.6,N
1630086055.4,286047001.0,N
1630086075.3,286047000.6,N
1630086095.1,286047000.9,N
1630086115.9,286047000.8,N
1630086135.7,286047000.6,N
1630086155.5,286047000.0,N
1630086175.4,286047000.3,N
1630086195.2,286047000.2,N
1630086215.0,286047000.4,N
1630086215.9,286047000.4,N
1630086235.8,286047000.5,N
1630086255.6,286047000.7,N
1630086275.5,286047000.1,N
1630086295.3,286046999.9,N
1630086315.1,286047000.1,N
1630086335.9,286047000.5,N
1630086355.7,286047000.9,N
1630086375.6,286046998.2,N
1630086395.4,286047000.9,N
1630086415.2,286047001.0,N
1630086435.1,286047000.6,N
1630086436.0,286047000.6,N
1630086455.8,286047000.5,N
1630086475.7,286047000.3,N
1630086495.5,286047000.3,N
1630086515.3,286047000.1,N
1630086535.2,286047000.1,N
1630086555.9,286047002.3,Y
1630086575.7,286047000.1,P
1630086595.6,286047002.3,P
1630086615.4,286047001.5,N
1630086635.3,286047001.5,N
1630086655.1,286047001.4,N
1630086656.0,286047001.4,N
1630086675.8,286047001.6,N
1630086695.7,286047001.4,N
1630086715.5,286047002.5,Y
1630086735.4,286047000.8,P
1630086755.2,286047000.8,P
1630086775.0,286047000.4,N
1630086775.9,286047000.4,N
1630086795.8,286047001.2,Y
1630086815.6,286046998.1,P
1630086835.4,286046998.4,N
1630086855.3,286046998.4,N
1630086875.1,286046998.4,N
1630086895.9,286046998.7,N
1630086915.7,286046998.8,N
1630086935.5,286046998.7,N
1630086955.4,286046999.3,N
1630086975.2,286047001.2,N
1630086995.0,286046998.5,N
1630086995.9,286046998.5,N
1630087015.8,286047000.7,N
1630087035.6,286046998.2,N
1630087055.5,286046999.3,N
1630087075.3,286046999.3,N
1630087095.1,286046999.3,N
1630087115.9,286046997.2,Y
1630087135.7,286046998.5,P
1630087155.6,286047000.8,N
1630087175.4,286047001.2,N
1630087195.2,286046998.6,N
